Flag for Austria Weather past 2 weeks in Bruck an der Leitha, Lower Austria, Austria

Now
68 °F

Overcast.


Feels Like: 68 °F
Forecast: 55 / 71 °F
Wind: 12 mph from South

Location: Wien / Schwechat-Flughafen

Current Time: Sep 18, 2014 at 2:46:51 PM

Latest Report: Sep 18, 2014 at 2:00 PM


Visibility: 17 mi

Pressure: 30.06 "Hg

Humidity: 56%

Dew point: 52 °F

Location of Bruck an der LeithaLocation

Historic Weather in Bruck an der Leitha — Graph

°F

Bruck an der Leitha temperature yesterday

Maximum temperature yesterday: 71 °F (at 3:00 PM)
Minimum temperature yesterday: 54 °F (at 7:00 AM)
Average temperature yesterday: 62 °F

Past Weeks' High & Low Weather Summary

 TemperatureHumidityPressure
High77 °F (Sep 5, 5:00 PM)100% (Sep 8, 8:00 AM)30.11 "Hg (Sep 8, 8:00 AM)
Low54 °F (Sep 18, 7:00 AM)53% (Sep 5, 6:00 PM)29.80 "Hg (Sep 12, 5:00 AM)
Average63 °F85%30.00 "Hg
* Reported Sep 3 1:00 PM — Sep 18 1:00 PM, Bruck an der Leitha, Weather by CustomWeather, © 2014

Note: Actual official high and low records may vary slightly from our data, if they occured in-between our weather recording intervals... More about our weather records

Advertising

Bruck an der Leitha weather history for previous 24 hours

 ConditionsComfort  
Time TempWeatherWind HumidityBarometerVisibility
1:00 PM
Sep 18
68 °FPartly sunny.12 mph57%30.07 "Hg16 mi
12:00 PM68 °FPartly sunny.12 mph58%30.07 "Hg13 mi
11:00 AM65 °FScattered clouds.12 mph61%30.08 "Hg16 mi
10:00 AM64 °FPassing clouds.9 mph69%30.08 "Hg17 mi
9:00 AM60 °FPassing clouds.7 mph77%30.08 "Hg12 mi
8:00 AM57 °FPassing clouds.7 mph84%30.07 "Hg11 mi
7:00 AM54 °FPassing clouds.6 mph93%30.07 "Hg7 mi
6:00 AM55 °FPassing clouds.6 mph88%30.06 "Hg9 mi
5:00 AM55 °FPassing clouds.5 mph90%30.06 "Hg10 mi
4:00 AM56 °FPassing clouds.6 mph87%30.06 "Hg13 mi
3:00 AM57 °FPassing clouds.6 mph85%30.06 "Hg14 mi
2:00 AM58 °FPassing clouds.6 mph89%30.07 "Hg10 mi
1:00 AM58 °FPassing clouds.5 mph92%30.07 "Hg6 mi
12:00 AM58 °FPassing clouds.5 mph89%30.07 "Hg9 mi
11:00 PM
Sep 17
59 °FPassing clouds.5 mph89%30.07 "Hg11 mi
10:00 PM58 °FPassing clouds.5 mph90%30.08 "Hg10 mi
9:00 PM61 °FPassing clouds.5 mph81%30.07 "Hg15 mi
8:00 PM64 °FPassing clouds.6 mph73%30.06 "Hg19 mi
7:00 PM65 °FSunny.5 mph68%30.05 "Hg25 mi
6:00 PM68 °FPassing clouds.6 mph64%30.05 "Hg22 mi
5:00 PM70 °FPassing clouds.7 mph58%30.04 "Hg16 mi
4:00 PM71 °FPassing clouds.8 mph55%30.05 "Hg22 mi
3:00 PM71 °FPassing clouds.8 mph53%30.06 "Hg17 mi
2:00 PM70 °FPassing clouds.8 mph58%30.07 "Hg19 mi
Weather by CustomWeather, © 2014

See weather overviewHow to use our weather pages